Weather History for KPSM - February, 2014

Change the Weather History Date:

Sunday, February 9, 2014

  Actual Average Record
Temperature  
Mean Temperature 23 °F -  
Max Temperature 27 °F 33 °F 59 °F (1990)
Min Temperature 19 °F 17 °F -11 °F (1978)
Degree Days  
Heating Degree Days 42    
Moisture  
Dew Point 13 °F    
Average Humidity 68    
Maximum Humidity 100    
Minimum Humidity 43    
Precipitation  
Precipitation 0.01 in - - ()
Snow  
Snow 0.00 in - - ()
Snow Depth 7.00 in    
Sea Level Pressure  
Sea Level Pressure 30.08 in    
Wind  
Wind Speed 6 mph (NNE)    
Max Wind Speed 9 mph    
Max Gust Speed -    
Visibility 7 miles    
Events Snow    
Averages and records for this station are not official NWS values.
T = Trace of Precipitation, MM = Missing Value Source: NWS Daily Summary

Daily Weather History Graph

Daily Weather History Graph

Search for Another Location

Airport or City:

Trip Planner

Search our weather history database for the weather conditions in past years. The results will help you decide how hot, cold, wet, or windy it might be!

Date:

Astronomy

Feb. 09, 2014 Rise Set
Actual Time 6:49 AM EST 5:06 PM EST
Civil Twilight 6:19 AM EST 5:36 PM EST
Nautical Twilight 5:45 AM EST 6:09 PM EST
Astronomical Twilight 5:12 AM EST 6:42 PM EST
Moon 12:41 PM EST (2/9) 2:54 AM EST (2/9)
Length of Visible Light 11h 16m
Length of Day
10h 17m
Waxing Gibbous, 77% of the Moon is Illuminated
Feb 9
Waxing Gibbous
Feb 14
Full
Feb 22
Last Quarter
Mar 1
New
Mar 8
First Quarter

Hourly Weather History & Observations

Time (EST) Temp. Windchill Dew Point Humidity Pressure Visibility Wind Dir Wind Speed Gust Speed Precip Events Conditions
12:58 AM 23.0 °F 13.9 °F 3.6 °F 43% 30.14 in 10.0 mi North 8.1 mph - N/A   Overcast
1:58 AM 21.9 °F 12.5 °F 5.7 °F 50% 30.15 in 10.0 mi North 8.1 mph - N/A   Overcast
2:58 AM 21.4 °F 12.8 °F 6.4 °F 53% 30.16 in 10.0 mi North 6.9 mph - N/A   Overcast
3:58 AM 20.7 °F 11.0 °F 6.1 °F 53% 30.16 in 10.0 mi NNE 8.1 mph - N/A   Overcast
4:58 AM 19.9 °F 9.3 °F 3.9 °F 50% 30.16 in 10.0 mi NNE 9.2 mph - N/A   Overcast
5:58 AM 19.6 °F 10.6 °F 4.5 °F 52% 30.15 in 10.0 mi NNE 6.9 mph - N/A   Overcast
6:58 AM 19.6 °F 10.6 °F 4.5 °F 52% 30.16 in 10.0 mi Variable 6.9 mph - N/A   Overcast
7:43 AM 19.4 °F 11.5 °F 5.0 °F 54% 30.16 in 10.0 mi NNE 5.8 mph - N/A   Overcast
7:58 AM 20.3 °F 12.5 °F 4.3 °F 50% 30.19 in 10.0 mi North 5.8 mph - N/A   Overcast
8:13 AM 21.2 °F 13.6 °F 5.0 °F 50% 30.17 in 10.0 mi North 5.8 mph - N/A   Overcast
8:58 AM 21.7 °F 11.5 °F 3.6 °F 46% 30.19 in 10.0 mi North 9.2 mph - N/A   Scattered Clouds
9:58 AM 22.8 °F 14.5 °F 4.8 °F 46% 30.18 in 10.0 mi NE 6.9 mph - N/A   Partly Cloudy
10:58 AM 25.0 °F - 5.4 °F 43% 30.15 in 10.0 mi Variable 2.3 mph - N/A   Scattered Clouds
11:58 AM 27.3 °F 22.0 °F 8.1 °F 44% 30.13 in 10.0 mi NW 4.6 mph - N/A   Mostly Cloudy
12:58 PM 27.7 °F - 7.9 °F 43% 30.09 in 10.0 mi Variable 1.2 mph - N/A   Mostly Cloudy
1:58 PM 26.1 °F 20.5 °F 10.2 °F 51% 30.06 in 10.0 mi ENE 4.6 mph - N/A   Mostly Cloudy
2:58 PM 25.7 °F 16.4 °F 10.6 °F 53% 30.06 in 10.0 mi SE 9.2 mph - N/A   Mostly Cloudy
3:58 PM 25.0 °F 15.5 °F 11.3 °F 56% 30.04 in 10.0 mi ESE 9.2 mph - N/A   Overcast
4:58 PM 25.2 °F 15.7 °F 15.1 °F 66% 30.03 in 10.0 mi ESE 9.2 mph - N/A   Overcast
5:58 PM 25.3 °F 18.5 °F 17.8 °F 73% 30.04 in 7.0 mi SSE 5.8 mph - 0.00 in Snow Light Snow
6:13 PM 24.8 °F 20.5 °F 19.4 °F 80% 30.03 in 2.0 mi South 3.5 mph - N/A Snow Light Snow
6:28 PM 24.8 °F 20.5 °F 21.2 °F 86% 30.03 in 1.5 mi South 3.5 mph - N/A Snow Light Snow
6:58 PM 24.1 °F - 23.5 °F 98% 30.05 in 1.2 mi Calm Calm - 0.00 in Snow Light Snow
7:39 PM 24.8 °F - 24.8 °F 100% 30.00 in 2.5 mi East 2.3 mph - N/A Snow Light Snow
7:58 PM 24.4 °F 20.1 °F 24.1 °F 99% 30.01 in 2.5 mi East 3.5 mph - 0.01 in Snow Light Snow
8:28 PM 24.8 °F - 24.8 °F 100% 29.98 in 4.0 mi East 2.3 mph - N/A Snow Light Snow
8:58 PM 24.8 °F - 24.4 °F 99% 29.99 in 3.0 mi Calm Calm - 0.00 in Snow Light Snow
9:43 PM 24.8 °F - 24.8 °F 100% 29.96 in 1.5 mi NNW 2.3 mph - N/A Snow Light Snow
9:58 PM 24.6 °F 20.3 °F 24.4 °F 99% 29.98 in 1.5 mi West 3.5 mph - 0.00 in Snow Light Snow
10:39 PM 24.8 °F 20.5 °F 23.0 °F 93% 29.94 in 4.0 mi NW 3.5 mph - N/A Snow Light Snow
10:58 PM 23.4 °F 17.4 °F 23.2 °F 99% 29.96 in 4.0 mi NW 4.6 mph - 0.00 in Snow Light Snow
11:58 PM 24.4 °F - 24.3 °F 99% 29.95 in 1.5 mi WNW 2.3 mph - 0.00 in Snow Light Snow